#timestamp,LO_Frequency,Hit,StdDev 
1597068015.2,286047000.5,N
1597068035.0,286047000.5,N
1597068035.9,286047000.5,N
1597068055.8,286046999.0,N
1597068075.6,286046998.8,N
1597068095.4,286046998.1,N
1597068115.3,286046998.8,N
1597068135.1,286046999.5,N
1597068155.8,286046996.6,N
1597068175.7,286046996.9,N
1597068195.5,286046997.5,N
1597068215.4,286046997.8,N
1597068235.2,286046998.7,N
1597068255.0,286046999.2,N
1597068256.0,286046999.2,N
1597068275.8,286046997.2,N
1597068295.6,286046994.9,Y
1597068315.5,286046995.3,P
1597068335.3,286046996.2,N
1597068355.1,286046993.4,P
1597068375.9,286046996.0,N
1597068395.7,286046994.0,Y
1597068415.6,286046999.0,P
1597068435.4,286046999.0,N
1597068455.2,286046998.3,N
1597068475.1,286046998.4,N
1597068476.0,286046998.4,N
1597068495.8,286047000.8,N
1597068515.6,286047001.2,N
1597068535.5,286046998.4,N
1597068555.3,286046999.0,N
1597068575.2,286046996.9,N
1597068595.9,286046999.1,N
1597068615.7,286046998.3,N
1597068635.6,286046999.0,N
1597068655.4,286046998.6,N
1597068675.2,286046998.4,N
1597068695.1,286046998.1,N
1597068696.0,286046998.1,N
1597068715.8,286046998.7,N
1597068735.7,286046996.6,Y
1597068755.5,286046996.9,P
1597068775.3,286046998.4,N
1597068795.2,286047000.4,N
1597068815.0,286046998.1,N
1597068815.9,286046998.1,N
1597068835.7,286046998.8,N
1597068855.6,286046996.5,Y
1597068875.4,286046996.5,P
1597068895.3,286046999.5,N
1597068915.1,286046996.9,N
1597068916.0,286046996.9,N
1597068935.8,286046997.1,N
1597068955.7,286046996.6,Y
1597068975.5,286047001.2,P
1597068995.4,286046998.2,N
1597069015.2,286046998.2,N
1597069035.0,286046999.4,N
1597069035.9,286046999.4,N
1597069055.8,286046998.5,N
1597069075.6,286046998.4,N
1597069095.4,286046998.6,N
1597069115.3,286046998.8,N
1597069135.1,286046999.0,N
1597069155.9,286046998.5,N
1597069175.7,286047000.1,N
1597069195.5,286047003.9,Y
1597069215.4,286047005.4,P
1597069235.2,286047007.6,N
1597069255.0,286047005.3,N
1597069255.9,286047005.3,N
1597069275.8,286047003.4,N
1597069295.6,286047003.8,N
1597069315.5,286047003.0,N
1597069335.3,286047005.4,N
1597069355.1,286047005.8,N
1597069375.9,286047003.4,N
1597069395.7,286047002.1,N
1597069415.5,286047002.5,N
1597069435.4,286047001.9,N
1597069455.2,286047002.4,N
1597069475.1,286047000.1,N
1597069476.0,286047000.1,N
1597069495.8,286046999.7,N
1597069515.6,286047000.6,N
1597069535.5,286046999.9,N
1597069555.3,286046999.9,N
1597069575.1,286047000.3,N
1597069595.9,286047000.2,N
1597069615.7,286047000.2,N
1597069635.6,286047002.4,N
1597069655.4,286047000.4,N
1597069675.2,286047000.1,N
1597069695.1,286047001.0,N
1597069696.0,286047001.0,N
1597069715.8,286047000.6,N
1597069735.7,286047000.3,N
1597069755.5,286047001.0,N
1597069775.3,286047002.8,N
1597069795.2,286047002.1,N
1597069815.0,286047001.7,N
1597069815.9,286047001.7,N
1597069835.7,286047001.5,N
1597069855.6,286047002.4,N
1597069875.4,286047000.1,N
1597069895.3,286047000.1,N
1597069915.1,286046999.7,N
1597069916.0,286046999.7,N
1597069935.8,286047001.6,N
1597069955.7,286047002.0,N
1597069975.5,286047001.5,N
1597069995.4,286047002.5,N
1597070015.2,286047004.3,Y
1597070035.0,286047004.0,P
1597070035.9,286047004.0,N
1597070055.8,286047003.9,N
1597070075.6,286047001.9,N
1597070095.4,286047001.6,N
1597070115.3,286046999.9,N
1597070135.1,286047002.5,N
1597070155.9,286047002.0,N
1597070175.7,286047001.8,N
1597070195.5,286047002.0,N
1597070215.4,286047001.6,N
1597070235.2,286047004.3,Y
1597070255.0,286047000.3,P
1597070256.0,286047000.3,N
1597070275.8,286046998.4,N
1597070295.6,286046998.4,N
1597070315.5,286046998.9,N
1597070335.3,286046999.0,N
1597070355.1,286046998.7,N
1597070375.9,286046999.0,N
1597070395.7,286046999.3,N
1597070415.6,286046999.3,N
1597070435.4,286046996.5,Y
1597070455.2,286047000.5,P
1597070475.1,286047002.8,P
1597070476.0,286047002.8,N
1597070495.8,286046999.8,N
1597070515.6,286047000.8,N
1597070535.5,286047000.5,N
1597070555.3,286047000.9,N
1597070575.2,286047001.1,N
1597070595.9,286047000.6,N
1597070615.7,286047001.1,N
1597070635.6,286047002.7,N
1597070655.4,286047002.7,N
1597070675.2,286047002.5,N
1597070695.1,286047001.3,N
1597070696.0,286047001.3,N
1597070715.8,286047001.4,N
1597070735.7,286047002.8,N
1597070755.5,286047004.0,Y
1597070775.3,286047001.9,P
1597070795.2,286047001.7,P
1597070815.0,286047002.3,P
1597070815.9,286047002.3,Y
1597070835.8,286047000.1,P
1597070855.6,286047000.0,N
1597070875.4,286046999.8,N
1597070895.3,286047000.6,N
1597070915.1,286046999.9,N
1597070935.8,286047000.7,N
1597070955.7,286047001.0,N
1597070975.5,286046999.3,N
1597070995.3,286047000.7,N
1597071015.2,286046998.8,N
1597071035.0,286046998.4,N
1597071035.9,286046998.4,N
1597071055.8,286046998.9,N
1597071075.6,286046997.1,N
1597071095.4,286046995.3,Y
1597071115.3,286046997.6,P
1597071135.1,286046997.6,N
1597071155.8,286046997.9,N
1597071175.7,286046995.8,Y
1597071195.5,286046997.0,P
1597071215.4,286046997.5,P
1597071235.2,286046999.4,N
1597071255.0,286046996.5,Y
1597071255.9,286046996.5,P
1597071275.8,286047000.1,N
1597071295.6,286047001.5,N
1597071315.5,286047002.3,N
1597071335.3,286047001.8,N
1597071355.1,286047004.1,N
1597071375.9,286047003.0,N
1597071395.7,286047005.2,N
1597071415.5,286047004.8,N
1597071435.4,286047005.4,N
1597071455.2,286047005.4,N
1597071475.1,286047005.9,N
1597071476.0,286047005.9,N
1597071495.8,286047005.8,N
1597071515.6,286047005.5,N
1597071535.5,286047005.5,N
1597071555.3,286047005.0,N
1597071575.1,286047005.3,N
1597071595.9,286047003.0,N
